Regional Weather Roundup
Issued by NWS

Home | Current Version | Previous Version | Graphics & Text | Print | Product List | Glossary Off
Versions: 1 2 3 4 5 6 7 8 9 10 11 12 13 14 15 16 17 18 19 20 21 22 23 24 25 26 27 28 29 30 31 32 33 34 35 36 37 38 39 40 41 42 43 44 45 46 47 48 49 50

663
ASUS45 KBOU 212307
RWRCO

WEATHER ROUNDUP FOR COLORADO
NATIONAL WEATHER SERVICE DENVER/BOULDER CO
500 PM MDT MON AUG 21 2017

NOTE: "FAIR" INDICATES FEW OR NO CLOUDS BELOW 12000 FEET WITH NO
SIGNIFICANT WEATHER AND/OR OBSTRUCTIONS TO VISIBILITY.

COZ001>005-013-030-031-220000-
...NORTHWEST COLORADO...

CITY           SKY/WX    TMP DP  RH WIND       PRES   REMARKS
CRAIG          FAIR      84  27  12 CALM      30.21S
HAYDEN         CLOUDY    83  33  16 N13       30.25S
MEEKER         FAIR      85  28  12 MISG      30.22S
RABBIT EARS PA FAIR      66  32  28 NW7G18    30.57R
STEAMBOAT SPGS FAIR      82  32  16 W9        30.26S
WALDEN         FAIR      77  27  15 NW13G22   30.38S
$$

COZ006>008-011-220000-
...WEST CENTRAL VALLEYS...

CITY           SKY/WX    TMP DP  RH WIND       PRES   REMARKS
GRAND JUNCTION FAIR      92  37  14 N9G25     30.08S
MONTROSE       FAIR      87  38  17 W12       30.16S
EAGLE          FAIR      78  36  21 W12       30.25S
RIFLE          FAIR      84  43  23 E17G26    30.14R
DELTA          FAIR      93  35  13 W8        30.09F
NUCLA          FAIR      82  36  18 NW22G29   30.20R
$$

COZ017>023-064>068-220000-
...SOUTHWEST COLORADO...

CITY           SKY/WX    TMP DP  RH WIND       PRES   REMARKS
DURANGO        FAIR      77  36  22 N9        30.25R THUNDER
CORTEZ         FAIR      86  47  25 S10       30.17F
PAGOSA SPRINGS PTSUNNY   71  40  32 NW13G20   30.32S
TELLURIDE        N/A     71  35  26 SE8       30.42S
WOLF CREEK PAS PTSUNNY   52  37  58 CALM      30.67S
$$

COZ009-010-012-014-032>034-037-058>063-220000-
...CENTRAL COLORADO...

CITY           SKY/WX    TMP DP  RH WIND       PRES   REMARKS
ASPEN          CLOUDY    78  33  19 N13G18    30.31R
BUENA VISTA    CLOUDY    58  49  72 NW13      30.41F
COPPER MTN     TSTM      55  36  47 NE10      30.68R
BERTHOUD PASS  FAIR      45  39  81 SE6       30.72S
COTTONWOOD PAS LGT RAIN  59  37  44 W8        30.55F
GUNNISON       FAIR      69  41  36 NE17      30.35R
KREMMLING      FAIR      88  27  11 W6G20     30.31S
LEADVILLE      LGT RAIN  56  40  55 S18       30.52R
MONARCH PASS   CLOUDY    48  36  61 E26G35    30.76S
SALIDA         CLOUDY    64  49  59 N5        30.46R
SUNLIGHT       PTSUNNY   59  32  36 N3        30.61S
WILKERSON PASS FAIR      57  34  41 E7        30.66R
$$

COZ069>075-220000-
...SAN LUIS VALLEY/SANGRE DE CRISTO MOUNTAINS...

CITY           SKY/WX    TMP DP  RH WIND       PRES   REMARKS
ALAMOSA        CLOUDY    72  42  34 E15G23    30.29R
DEL NORTE      FAIR      76  40  27 E7        30.33R
LA VETA PASS   NOT AVBL
SAGUACHE       TSTM      59  46  63 NE13      30.39R
$$

COZ035-036-038>040-220000-
...NORTHERN COLORADO FRONT RANGE...

CITY           SKY/WX    TMP DP  RH WIND       PRES   REMARKS
DENVER INTL AP FAIR      85  39  19 N15       30.19R
DMNS CITY PARK   N/A     82  38  21 NE9G20    30.19R
AURORA         PTSUNNY   82  41  23 N13       30.21R
FRONT RANGE AP FAIR      86  41  20 N9        30.20R
ERIE MUNI ARPT FAIR      86  35  16 CALM      30.22S
BOULDER MUN AP FAIR      81  41  24 NE3       30.19R
CENTENNIAL     PTSUNNY   82  37  20 NE12G23   30.22S
BROOMFIELD     PTSUNNY   84  41  21 N7        30.22S
FORT COLLINS   FAIR      86  45  23 E5        30.17S
LONGMONT       FAIR      86  39  18 SE6       30.18S
$$

COZ041-046-047-076>085-087-088-220000-
...PIKES PEAK/PALMER DIVIDE AND SOUTHERN FOOTHILLS...

CITY           SKY/WX    TMP DP  RH WIND       PRES   REMARKS
COLO. SPRINGS  PTSUNNY   81  42  25 NE13      30.24R
A. F. ACADEMY  FAIR      78  40  25 N15       30.26R
SCHRIEVER AFB  FAIR      78  40  26 N13       30.25R
CHEYENNE MTN   PTSUNNY   74  39  28 NW8       30.25R
ELLICOTT       FAIR     N/A N/A N/A NE16G22   30.22R
FALCON         FAIR      76  37  24 NE15      30.30S
FORT CARSON    FAIR      78  46  31 NE10      30.20R
LIMON          FAIR      84  46  26 N15       30.17R
MONUMENT HILL  FAIR      73  37  27 N15G25    30.33R
CANON CITY     PTSUNNY   75  50  41 W18G36    30.16R
WALSENBURG     FAIR      84  41  21 N13       30.20R
TRINIDAD       FAIR      84  47  27 E8        30.16S
$$

COZ042>045-048>051-090-091-220000-
...NORTHEAST COLORADO...

CITY           SKY/WX    TMP DP  RH WIND       PRES   REMARKS
GREELEY ARPT   FAIR      85  52  32 NE13      30.15R
AKRON          FAIR      83  55  38 N18G25    30.13R
BURLINGTON     FAIR      86  64  47 N16       30.06R
WRAY           NOT AVBL
YUMA           FAIR      82  46  28 N17G23    30.08R
STERLING       FAIR      82  59  44 NE10G22   30.08S
HOLYOKE        FAIR      86  61  42 N13       30.07R
FORT MORGAN    FAIR      85  48  27 NE18G25   30.13S
$$

COZ086-089-092>099-220000-
...SOUTHEAST COLORADO...

CITY           SKY/WX    TMP DP  RH WIND       PRES   REMARKS
PUEBLO         FAIR      92  47  21 N12G17    30.08S
LA JUNTA       FAIR      92  51  24 MISG      30.05R
LAMAR          FAIR      88  54  31 CALM      30.00S
SPRINGFIELD      N/A     84  62  47 S16       30.07S
$$




USA.gov is the U.S. government's official web portal to all federal, state and local government web resources and services.